"Time","Value","Approval","myLocation"
"2023-05-06 00:00",4.888,"Working","OW283"
"2023-05-06 01:00",4.888,"Working","OW283"
"2023-05-06 02:00",4.887,"Working","OW283"
"2023-05-06 03:00",4.887,"Working","OW283"
"2023-05-06 04:00",4.887,"Working","OW283"
"2023-05-06 05:00",4.893,"Working","OW283"
"2023-05-06 06:00",4.898,"Working","OW283"
"2023-05-06 07:00",4.905,"Working","OW283"
"2023-05-06 08:00",4.911,"Working","OW283"
"2023-05-06 09:00",4.914,"Working","OW283"
"2023-05-06 10:00",4.915,"Working","OW283"
"2023-05-06 11:00",4.917,"Working","OW283"
"2023-05-06 12:00",4.918,"Working","OW283"
"2023-05-06 13:00",4.918,"Working","OW283"
"2023-05-06 14:00",4.919,"Working","OW283"
"2023-05-06 15:00",4.92,"Working","OW283"
"2023-05-06 16:00",4.921,"Working","OW283"
"2023-05-06 17:00",4.923,"Working","OW283"
"2023-05-06 18:00",4.926,"Working","OW283"
"2023-05-06 19:00",4.927,"Working","OW283"
"2023-05-06 20:00",4.935,"Working","OW283"
"2023-05-06 21:00",4.939,"Working","OW283"
"2023-05-06 22:00",4.945,"Working","OW283"
"2023-05-06 23:00",4.945,"Working","OW283"
"2023-05-07 00:00",4.943,"Working","OW283"
"2023-05-07 01:00",4.94,"Working","OW283"
"2023-05-07 02:00",4.94,"Working","OW283"
"2023-05-07 03:00",4.947,"Working","OW283"
"2023-05-07 04:00",4.949,"Working","OW283"
"2023-05-07 05:00",4.95,"Working","OW283"
"2023-05-07 06:00",4.949,"Working","OW283"
"2023-05-07 07:00",4.948,"Working","OW283"
"2023-05-07 08:00",4.946,"Working","OW283"
"2023-05-07 09:00",4.944,"Working","OW283"
"2023-05-07 10:00",4.944,"Working","OW283"
"2023-05-07 11:00",4.942,"Working","OW283"
"2023-05-07 12:00",4.942,"Working","OW283"
"2023-05-07 13:00",4.94,"Working","OW283"
"2023-05-07 14:00",4.941,"Working","OW283"
"2023-05-07 15:00",4.948,"Working","OW283"
"2023-05-07 16:00",4.949,"Working","OW283"
"2023-05-07 17:00",4.95,"Working","OW283"
"2023-05-07 18:00",4.948,"Working","OW283"
"2023-05-07 19:00",4.947,"Working","OW283"
"2023-05-07 20:00",4.946,"Working","OW283"
"2023-05-07 21:00",4.951,"Working","OW283"
"2023-05-07 22:00",4.957,"Working","OW283"
"2023-05-07 23:00",4.958,"Working","OW283"
"2023-05-08 00:00",4.96,"Working","OW283"
"2023-05-08 01:00",4.956,"Working","OW283"
"2023-05-08 02:00",4.954,"Working","OW283"
"2023-05-08 03:00",4.961,"Working","OW283"
"2023-05-08 04:00",4.963,"Working","OW283"
"2023-05-08 05:00",4.964,"Working","OW283"
"2023-05-08 06:00",4.962,"Working","OW283"
"2023-05-08 07:00",4.961,"Working","OW283"
"2023-05-08 08:00",4.959,"Working","OW283"
"2023-05-08 09:00",4.957,"Working","OW283"
"2023-05-08 10:00",4.956,"Working","OW283"
"2023-05-08 11:00",4.956,"Working","OW283"
"2023-05-08 12:00",4.957,"Working","OW283"
"2023-05-08 13:00",4.958,"Working","OW283"
"2023-05-08 14:00",4.957,"Working","OW283"
"2023-05-08 15:00",4.954,"Working","OW283"
"2023-05-08 16:00",4.952,"Working","OW283"
"2023-05-08 17:00",4.953,"Working","OW283"
"2023-05-08 18:00",4.958,"Working","OW283"
"2023-05-08 19:00",4.964,"Working","OW283"
"2023-05-08 20:00",4.961,"Working","OW283"
"2023-05-08 21:00",4.961,"Working","OW283"
"2023-05-08 22:00",4.963,"Working","OW283"
"2023-05-08 23:00",4.964,"Working","OW283"
"2023-05-09 00:00",4.962,"Working","OW283"
"2023-05-09 01:00",4.96,"Working","OW283"
"2023-05-09 02:00",4.958,"Working","OW283"
"2023-05-09 03:00",4.958,"Working","OW283"
"2023-05-09 04:00",4.959,"Working","OW283"
"2023-05-09 05:00",4.963,"Working","OW283"
"2023-05-09 06:00",4.962,"Working","OW283"
"2023-05-09 07:00",4.964,"Working","OW283"
"2023-05-09 08:00",4.963,"Working","OW283"
"2023-05-09 09:00",4.961,"Working","OW283"
"2023-05-09 10:00",4.96,"Working","OW283"
"2023-05-09 11:00",4.959,"Working","OW283"
"2023-05-09 12:00",4.957,"Working","OW283"
"2023-05-09 13:00",4.956,"Working","OW283"
"2023-05-09 14:00",4.957,"Working","OW283"
"2023-05-09 15:00",4.955,"Working","OW283"
"2023-05-09 16:00",4.956,"Working","OW283"
"2023-05-09 17:00",4.959,"Working","OW283"
"2023-05-09 18:00",4.963,"Working","OW283"
"2023-05-09 19:00",4.973,"Working","OW283"
"2023-05-09 20:00",4.981,"Working","OW283"
"2023-05-09 21:00",4.985,"Working","OW283"
"2023-05-09 22:00",4.988,"Working","OW283"
"2023-05-09 23:00",4.99,"Working","OW283"
"2023-05-10 00:00",4.989,"Working","OW283"
"2023-05-10 01:00",4.994,"Working","OW283"
"2023-05-10 02:00",4.993,"Working","OW283"
"2023-05-10 03:00",4.994,"Working","OW283"
"2023-05-10 04:00",4.995,"Working","OW283"
"2023-05-10 05:00",4.996,"Working","OW283"
"2023-05-10 06:00",4.997,"Working","OW283"
"2023-05-10 07:00",4.995,"Working","OW283"
"2023-05-10 08:00",4.993,"Working","OW283"
"2023-05-10 09:00",4.991,"Working","OW283"
"2023-05-10 10:00",4.99,"Working","OW283"
"2023-05-10 11:00",4.99,"Working","OW283"
"2023-05-10 12:00",4.987,"Working","OW283"
"2023-05-10 13:00",4.985,"Working","OW283"
"2023-05-10 14:00",4.985,"Working","OW283"
"2023-05-10 15:00",4.984,"Working","OW283"
"2023-05-10 16:00",4.986,"Working","OW283"
"2023-05-10 17:00",4.99,"Working","OW283"
"2023-05-10 18:00",4.995,"Working","OW283"
"2023-05-10 19:00",4.995,"Working","OW283"
"2023-05-10 20:00",4.994,"Working","OW283"
"2023-05-10 21:00",4.991,"Working","OW283"
"2023-05-10 22:00",4.991,"Working","OW283"
"2023-05-10 23:00",4.992,"Working","OW283"
"2023-05-11 00:00",4.996,"Working","OW283"
"2023-05-11 01:00",5.001,"Working","OW283"
"2023-05-11 02:00",5.003,"Working","OW283"
"2023-05-11 03:00",5.004,"Working","OW283"
"2023-05-11 04:00",5.006,"Working","OW283"
"2023-05-11 05:00",5.005,"Working","OW283"
"2023-05-11 06:00",5.005,"Working","OW283"
"2023-05-11 07:00",5.004,"Working","OW283"
"2023-05-11 08:00",5.005,"Working","OW283"
"2023-05-11 09:00",5.006,"Working","OW283"
"2023-05-11 10:00",5.005,"Working","OW283"
"2023-05-11 11:00",5.003,"Working","OW283"
"2023-05-11 12:00",5.003,"Working","OW283"
"2023-05-11 13:00",5.004,"Working","OW283"
"2023-05-11 14:00",5.005,"Working","OW283"
"2023-05-11 15:00",5.005,"Working","OW283"
"2023-05-11 16:00",5.007,"Working","OW283"
"2023-05-11 17:00",5.011,"Working","OW283"
"2023-05-11 18:00",5.019,"Working","OW283"
"2023-05-11 19:00",5.024,"Working","OW283"
"2023-05-11 20:00",5.023,"Working","OW283"
"2023-05-11 21:00",5.025,"Working","OW283"
"2023-05-11 22:00",5.022,"Working","OW283"
"2023-05-11 23:00",5.018,"Working","OW283"
"2023-05-12 00:00",5.015,"Working","OW283"
"2023-05-12 01:00",5.024,"Working","OW283"
"2023-05-12 02:00",5.026,"Working","OW283"
"2023-05-12 03:00",5.026,"Working","OW283"
"2023-05-12 04:00",5.026,"Working","OW283"
"2023-05-12 05:00",5.026,"Working","OW283"
"2023-05-12 06:00",5.026,"Working","OW283"
"2023-05-12 07:00",5.026,"Working","OW283"
"2023-05-12 08:00",5.028,"Working","OW283"
"2023-05-12 09:00",5.03,"Working","OW283"
"2023-05-12 10:00",5.03,"Working","OW283"
"2023-05-12 11:00",5.029,"Working","OW283"
"2023-05-12 12:00",5.027,"Working","OW283"
"2023-05-12 13:00",5.027,"Working","OW283"
"2023-05-12 14:00",5.029,"Working","OW283"
"2023-05-12 15:00",5.03,"Working","OW283"
"2023-05-12 16:00",5.03,"Working","OW283"
"2023-05-12 17:00",5.036,"Working","OW283"
"2023-05-12 18:00",5.052,"Working","OW283"
"2023-05-12 19:00",5.057,"Working","OW283"
"2023-05-12 20:00",5.064,"Working","OW283"
"2023-05-12 21:00",5.072,"Working","OW283"
"2023-05-12 22:00",5.079,"Working","OW283"
"2023-05-12 23:00",5.082,"Working","OW283"
"2023-05-13 00:00",5.085,"Working","OW283"
"2023-05-13 01:00",5.089,"Working","OW283"
"2023-05-13 02:00",5.087,"Working","OW283"
"2023-05-13 03:00",5.086,"Working","OW283"
"2023-05-13 04:00",5.091,"Working","OW283"
"2023-05-13 05:00",5.099,"Working","OW283"
"2023-05-13 06:00",5.103,"Working","OW283"
"2023-05-13 07:00",5.105,"Working","OW283"
"2023-05-13 08:00",5.103,"Working","OW283"
"2023-05-13 09:00",5.101,"Working","OW283"
"2023-05-13 10:00",5.098,"Working","OW283"
"2023-05-13 11:00",5.094,"Working","OW283"
"2023-05-13 12:00",5.091,"Working","OW283"
"2023-05-13 13:00",5.088,"Working","OW283"
"2023-05-13 14:00",5.087,"Working","OW283"
"2023-05-13 15:00",5.084,"Working","OW283"
"2023-05-13 16:00",5.087,"Working","OW283"
"2023-05-13 17:00",5.083,"Working","OW283"
"2023-05-13 18:00",5.096,"Working","OW283"
"2023-05-13 19:00",5.11,"Working","OW283"
"2023-05-13 20:00",5.128,"Working","OW283"
"2023-05-13 21:00",5.139,"Working","OW283"
"2023-05-13 22:00",5.147,"Working","OW283"
"2023-05-13 23:00",5.149,"Working","OW283"
"2023-05-14 00:00",5.147,"Working","OW283"
"2023-05-14 01:00",5.142,"Working","OW283"
"2023-05-14 02:00",5.135,"Working","OW283"
"2023-05-14 03:00",5.128,"Working","OW283"
"2023-05-14 04:00",5.123,"Working","OW283"
"2023-05-14 05:00",5.119,"Working","OW283"
"2023-05-14 06:00",5.116,"Working","OW283"
"2023-05-14 07:00",5.116,"Working","OW283"
"2023-05-14 08:00",5.119,"Working","OW283"
"2023-05-14 09:00",5.12,"Working","OW283"
"2023-05-14 10:00",5.118,"Working","OW283"
"2023-05-14 11:00",5.114,"Working","OW283"
"2023-05-14 12:00",5.111,"Working","OW283"
"2023-05-14 13:00",5.108,"Working","OW283"
"2023-05-14 14:00",5.107,"Working","OW283"
"2023-05-14 15:00",5.103,"Working","OW283"
"2023-05-14 16:00",5.098,"Working","OW283"
"2023-05-14 17:00",5.114,"Working","OW283"
"2023-05-14 18:00",5.136,"Working","OW283"
"2023-05-14 19:00",5.151,"Working","OW283"
"2023-05-14 20:00",5.169,"Working","OW283"
"2023-05-14 21:00",5.181,"Working","OW283"
"2023-05-14 22:00",5.188,"Working","OW283"
"2023-05-14 23:00",5.192,"Working","OW283"
"2023-05-15 00:00",5.191,"Working","OW283"
"2023-05-15 01:00",5.189,"Working","OW283"
"2023-05-15 02:00",5.184,"Working","OW283"
"2023-05-15 03:00",5.182,"Working","OW283"
"2023-05-15 04:00",5.179,"Working","OW283"
"2023-05-15 05:00",5.178,"Working","OW283"
"2023-05-15 06:00",5.176,"Working","OW283"
"2023-05-15 07:00",5.172,"Working","OW283"
"2023-05-15 08:00",5.165,"Working","OW283"
"2023-05-15 09:00",5.162,"Working","OW283"
"2023-05-15 10:00",5.156,"Working","OW283"
"2023-05-15 11:00",5.153,"Working","OW283"
"2023-05-15 12:00",5.151,"Working","OW283"
"2023-05-15 13:00",5.146,"Working","OW283"
"2023-05-15 14:00",5.144,"Working","OW283"
"2023-05-15 15:00",5.159,"Working","OW283"
"2023-05-15 16:00",5.171,"Working","OW283"
"2023-05-15 17:00",5.182,"Working","OW283"
"2023-05-15 18:00",5.193,"Working","OW283"
"2023-05-15 19:00",5.201,"Working","OW283"
"2023-05-15 20:00",5.212,"Working","OW283"
"2023-05-15 21:00",5.222,"Working","OW283"
"2023-05-15 22:00",5.225,"Working","OW283"
"2023-05-15 23:00",5.229,"Working","OW283"
"2023-05-16 00:00",5.229,"Working","OW283"
"2023-05-16 01:00",5.226,"Working","OW283"
"2023-05-16 02:00",5.227,"Working","OW283"
"2023-05-16 03:00",5.226,"Working","OW283"
"2023-05-16 04:00",5.224,"Working","OW283"
"2023-05-16 05:00",5.22,"Working","OW283"
"2023-05-16 06:00",5.217,"Working","OW283"
"2023-05-16 07:00",5.213,"Working","OW283"
"2023-05-16 08:00",5.21,"Working","OW283"
"2023-05-16 09:00",5.207,"Working","OW283"
"2023-05-16 10:00",5.205,"Working","OW283"
"2023-05-16 11:00",5.203,"Working","OW283"
"2023-05-16 12:00",5.201,"Working","OW283"
"2023-05-16 13:00",5.197,"Working","OW283"
"2023-05-16 14:00",5.195,"Working","OW283"
"2023-05-16 15:00",5.192,"Working","OW283"
"2023-05-16 16:00",5.193,"Working","OW283"
"2023-05-16 17:00",5.202,"Working","OW283"
"2023-05-16 18:00",5.218,"Working","OW283"
"2023-05-16 19:00",5.237,"Working","OW283"
"2023-05-16 20:00",5.244,"Working","OW283"
"2023-05-16 21:00",5.248,"Working","OW283"
"2023-05-16 22:00",5.251,"Working","OW283"
"2023-05-16 23:00",5.251,"Working","OW283"
"2023-05-17 00:00",5.256,"Working","OW283"
"2023-05-17 01:00",5.257,"Working","OW283"
"2023-05-17 02:00",5.257,"Working","OW283"
"2023-05-17 03:00",5.256,"Working","OW283"
"2023-05-17 04:00",5.256,"Working","OW283"
"2023-05-17 05:00",5.258,"Working","OW283"
"2023-05-17 06:00",5.257,"Working","OW283"
"2023-05-17 07:00",5.264,"Working","OW283"
"2023-05-17 08:00",5.263,"Working","OW283"
"2023-05-17 09:00",5.263,"Working","OW283"
"2023-05-17 10:00",5.262,"Working","OW283"
"2023-05-17 11:00",5.259,"Working","OW283"
"2023-05-17 12:00",5.257,"Working","OW283"
"2023-05-17 13:00",5.254,"Working","OW283"
"2023-05-17 14:00",5.251,"Working","OW283"
"2023-05-17 15:00",5.25,"Working","OW283"
"2023-05-17 16:00",5.245,"Working","OW283"
"2023-05-17 17:00",5.25,"Working","OW283"
"2023-05-17 18:00",5.257,"Working","OW283"
"2023-05-17 19:00",5.262,"Working","OW283"
"2023-05-17 20:00",5.266,"Working","OW283"
"2023-05-17 21:00",5.265,"Working","OW283"
"2023-05-17 22:00",5.268,"Working","OW283"
"2023-05-17 23:00",5.268,"Working","OW283"
"2023-05-18 00:00",5.267,"Working","OW283"
"2023-05-18 01:00",5.267,"Working","OW283"
"2023-05-18 02:00",5.264,"Working","OW283"
"2023-05-18 03:00",5.265,"Working","OW283"
"2023-05-18 04:00",5.263,"Working","OW283"
"2023-05-18 05:00",5.262,"Working","OW283"
"2023-05-18 06:00",5.263,"Working","OW283"
"2023-05-18 07:00",5.265,"Working","OW283"
"2023-05-18 08:00",5.264,"Working","OW283"
"2023-05-18 09:00",5.268,"Working","OW283"
"2023-05-18 10:00",5.267,"Working","OW283"
"2023-05-18 11:00",5.266,"Working","OW283"
"2023-05-18 12:00",5.265,"Working","OW283"
"2023-05-18 13:00",5.264,"Working","OW283"
"2023-05-18 14:00",5.265,"Working","OW283"
"2023-05-18 15:00",5.265,"Working","OW283"
"2023-05-18 16:00",5.261,"Working","OW283"
"2023-05-18 17:00",5.262,"Working","OW283"
"2023-05-18 18:00",5.26,"Working","OW283"
"2023-05-18 19:00",5.259,"Working","OW283"
"2023-05-18 20:00",5.26,"Working","OW283"
"2023-05-18 21:00",5.259,"Working","OW283"
"2023-05-18 22:00",5.264,"Working","OW283"
"2023-05-18 23:00",5.27,"Working","OW283"
"2023-05-19 00:00",5.273,"Working","OW283"
"2023-05-19 01:00",5.273,"Working","OW283"
"2023-05-19 02:00",5.273,"Working","OW283"
"2023-05-19 03:00",5.271,"Working","OW283"
"2023-05-19 04:00",5.271,"Working","OW283"
"2023-05-19 05:00",5.277,"Working","OW283"
"2023-05-19 06:00",5.276,"Working","OW283"
"2023-05-19 07:00",5.273,"Working","OW283"
"2023-05-19 08:00",5.272,"Working","OW283"
"2023-05-19 09:00",5.27,"Working","OW283"
"2023-05-19 10:00",5.272,"Working","OW283"
"2023-05-19 11:00",5.271,"Working","OW283"
"2023-05-19 12:00",5.269,"Working","OW283"
"2023-05-19 13:00",5.27,"Working","OW283"
"2023-05-19 14:00",5.272,"Working","OW283"
"2023-05-19 15:00",5.284,"Working","OW283"
"2023-05-19 16:00",5.29,"Working","OW283"
"2023-05-19 17:00",5.291,"Working","OW283"
"2023-05-19 18:00",5.29,"Working","OW283"
"2023-05-19 19:00",5.285,"Working","OW283"
"2023-05-19 20:00",5.291,"Working","OW283"
"2023-05-19 21:00",5.288,"Working","OW283"
"2023-05-19 22:00",5.289,"Working","OW283"
"2023-05-19 23:00",5.287,"Working","OW283"
"2023-05-20 00:00",5.285,"Working","OW283"
"2023-05-20 01:00",5.283,"Working","OW283"
"2023-05-20 02:00",5.282,"Working","OW283"
"2023-05-20 03:00",5.282,"Working","OW283"
"2023-05-20 04:00",5.283,"Working","OW283"
"2023-05-20 05:00",5.283,"Working","OW283"
"2023-05-20 06:00",5.282,"Working","OW283"
"2023-05-20 07:00",5.282,"Working","OW283"
"2023-05-20 08:00",5.282,"Working","OW283"
"2023-05-20 09:00",5.282,"Working","OW283"
"2023-05-20 10:00",5.281,"Working","OW283"
"2023-05-20 11:00",5.28,"Working","OW283"
"2023-05-20 12:00",5.278,"Working","OW283"
"2023-05-20 13:00",5.277,"Working","OW283"
"2023-05-20 14:00",5.276,"Working","OW283"
"2023-05-20 15:00",5.276,"Working","OW283"
"2023-05-20 16:00",5.272,"Working","OW283"
"2023-05-20 17:00",5.274,"Working","OW283"
"2023-05-20 18:00",5.283,"Working","OW283"
"2023-05-20 19:00",5.289,"Working","OW283"
"2023-05-20 20:00",5.302,"Working","OW283"
"2023-05-20 21:00",5.302,"Working","OW283"
"2023-05-20 22:00",5.301,"Working","OW283"
"2023-05-20 23:00",5.302,"Working","OW283"
"2023-05-21 00:00",5.306,"Working","OW283"
"2023-05-21 01:00",5.314,"Working","OW283"
"2023-05-21 02:00",5.31,"Working","OW283"
"2023-05-21 03:00",5.304,"Working","OW283"
"2023-05-21 04:00",5.304,"Working","OW283"
"2023-05-21 05:00",5.304,"Working","OW283"
"2023-05-21 06:00",5.306,"Working","OW283"
"2023-05-21 07:00",5.303,"Working","OW283"
"2023-05-21 08:00",5.304,"Working","OW283"
"2023-05-21 09:00",5.303,"Working","OW283"
"2023-05-21 10:00",5.298,"Working","OW283"
"2023-05-21 11:00",5.293,"Working","OW283"
"2023-05-21 12:00",5.292,"Working","OW283"
"2023-05-21 13:00",5.291,"Working","OW283"
"2023-05-21 14:00",5.288,"Working","OW283"
"2023-05-21 15:00",5.286,"Working","OW283"
"2023-05-21 16:00",5.289,"Working","OW283"
"2023-05-21 17:00",5.288,"Working","OW283"
"2023-05-21 18:00",5.287,"Working","OW283"
"2023-05-21 19:00",5.289,"Working","OW283"
"2023-05-21 20:00",5.292,"Working","OW283"
"2023-05-21 21:00",5.289,"Working","OW283"
"2023-05-21 22:00",5.288,"Working","OW283"
"2023-05-21 23:00",5.286,"Working","OW283"
"2023-05-22 00:00",5.289,"Working","OW283"
"2023-05-22 01:00",5.287,"Working","OW283"
"2023-05-22 02:00",5.285,"Working","OW283"
"2023-05-22 03:00",5.285,"Working","OW283"
"2023-05-22 04:00",5.286,"Working","OW283"
"2023-05-22 05:00",5.284,"Working","OW283"
"2023-05-22 06:00",5.285,"Working","OW283"
"2023-05-22 07:00",5.284,"Working","OW283"
"2023-05-22 08:00",5.284,"Working","OW283"
"2023-05-22 09:00",5.284,"Working","OW283"
"2023-05-22 10:00",5.283,"Working","OW283"
"2023-05-22 11:00",5.282,"Working","OW283"
"2023-05-22 12:00",5.279,"Working","OW283"
"2023-05-22 13:00",5.279,"Working","OW283"
"2023-05-22 14:00",5.278,"Working","OW283"
"2023-05-22 15:00",5.276,"Working","OW283"
"2023-05-22 16:00",5.279,"Working","OW283"
"2023-05-22 17:00",5.277,"Working","OW283"
"2023-05-22 18:00",5.275,"Working","OW283"
"2023-05-22 19:00",5.276,"Working","OW283"
"2023-05-22 20:00",5.276,"Working","OW283"
"2023-05-22 21:00",5.275,"Working","OW283"
"2023-05-22 22:00",5.277,"Working","OW283"
"2023-05-22 23:00",5.278,"Working","OW283"
"2023-05-23 00:00",5.279,"Working","OW283"
"2023-05-23 01:00",5.278,"Working","OW283"
"2023-05-23 02:00",5.276,"Working","OW283"
"2023-05-23 03:00",5.277,"Working","OW283"
"2023-05-23 04:00",5.276,"Working","OW283"
"2023-05-23 05:00",5.276,"Working","OW283"
"2023-05-23 06:00",5.277,"Working","OW283"
"2023-05-23 07:00",5.277,"Working","OW283"
"2023-05-23 08:00",5.276,"Working","OW283"
"2023-05-23 09:00",5.276,"Working","OW283"
"2023-05-23 10:00",5.274,"Working","OW283"
"2023-05-23 11:00",5.275,"Working","OW283"
"2023-05-23 12:00",5.272,"Working","OW283"
"2023-05-23 13:00",5.271,"Working","OW283"
"2023-05-23 14:00",5.268,"Working","OW283"
"2023-05-23 15:00",5.266,"Working","OW283"
"2023-05-23 16:00",5.276,"Working","OW283"
"2023-05-23 17:00",5.275,"Working","OW283"
"2023-05-23 18:00",5.279,"Working","OW283"
"2023-05-23 19:00",5.276,"Working","OW283"
"2023-05-23 20:00",5.276,"Working","OW283"
"2023-05-23 21:00",5.275,"Working","OW283"
"2023-05-23 22:00",5.268,"Working","OW283"
"2023-05-23 23:00",5.271,"Working","OW283"
"2023-05-24 00:00",5.277,"Working","OW283"
"2023-05-24 01:00",5.271,"Working","OW283"
"2023-05-24 02:00",5.287,"Working","OW283"
"2023-05-24 03:00",5.286,"Working","OW283"
"2023-05-24 04:00",5.288,"Working","OW283"
"2023-05-24 05:00",5.286,"Working","OW283"
"2023-05-24 06:00",5.287,"Working","OW283"
"2023-05-24 07:00",5.286,"Working","OW283"
"2023-05-24 08:00",5.283,"Working","OW283"
"2023-05-24 09:00",5.284,"Working","OW283"
"2023-05-24 10:00",5.281,"Working","OW283"
"2023-05-24 11:00",5.28,"Working","OW283"
"2023-05-24 12:00",5.278,"Working","OW283"
"2023-05-24 13:00",5.28,"Working","OW283"
"2023-05-24 14:00",5.278,"Working","OW283"
"2023-05-24 15:00",5.275,"Working","OW283"
"2023-05-24 16:00",5.279,"Working","OW283"
"2023-05-24 17:00",5.292,"Working","OW283"
"2023-05-24 18:00",5.292,"Working","OW283"
"2023-05-24 19:00",5.299,"Working","OW283"
"2023-05-24 20:00",5.303,"Working","OW283"
"2023-05-24 21:00",5.305,"Working","OW283"
"2023-05-24 22:00",5.302,"Working","OW283"
"2023-05-24 23:00",5.301,"Working","OW283"
"2023-05-25 00:00",5.298,"Working","OW283"
"2023-05-25 01:00",5.303,"Working","OW283"
"2023-05-25 02:00",5.31,"Working","OW283"
"2023-05-25 03:00",5.307,"Working","OW283"
"2023-05-25 04:00",5.307,"Working","OW283"
"2023-05-25 05:00",5.306,"Working","OW283"
"2023-05-25 06:00",5.304,"Working","OW283"
"2023-05-25 07:00",5.3,"Working","OW283"
"2023-05-25 08:00",5.3,"Working","OW283"
"2023-05-25 09:00",5.298,"Working","OW283"
"2023-05-25 10:00",5.297,"Working","OW283"
"2023-05-25 11:00",5.296,"Working","OW283"
"2023-05-25 12:00",5.29,"Working","OW283"
"2023-05-25 13:00",5.287,"Working","OW283"
"2023-05-25 14:00",5.286,"Working","OW283"
"2023-05-25 15:00",5.282,"Working","OW283"
"2023-05-25 16:00",5.288,"Working","OW283"
"2023-05-25 17:00",5.303,"Working","OW283"
"2023-05-25 18:00",5.304,"Working","OW283"
"2023-05-25 19:00",5.305,"Working","OW283"
"2023-05-25 20:00",5.306,"Working","OW283"
"2023-05-25 21:00",5.302,"Working","OW283"
"2023-05-25 22:00",5.301,"Working","OW283"
"2023-05-25 23:00",5.299,"Working","OW283"
"2023-05-26 00:00",5.298,"Working","OW283"
"2023-05-26 01:00",5.297,"Working","OW283"
"2023-05-26 02:00",5.297,"Working","OW283"
"2023-05-26 03:00",5.296,"Working","OW283"
"2023-05-26 04:00",5.292,"Working","OW283"
"2023-05-26 05:00",5.292,"Working","OW283"
"2023-05-26 06:00",5.29,"Working","OW283"
"2023-05-26 07:00",5.286,"Working","OW283"
"2023-05-26 08:00",5.287,"Working","OW283"
"2023-05-26 09:00",5.285,"Working","OW283"
"2023-05-26 10:00",5.284,"Working","OW283"
"2023-05-26 11:00",5.282,"Working","OW283"
"2023-05-26 12:00",5.283,"Working","OW283"
"2023-05-26 13:00",5.282,"Working","OW283"
"2023-05-26 14:00",5.28,"Working","OW283"
"2023-05-26 15:00",5.28,"Working","OW283"
"2023-05-26 16:00",5.28,"Working","OW283"
"2023-05-26 17:00",5.28,"Working","OW283"
"2023-05-26 18:00",5.283,"Working","OW283"
"2023-05-26 19:00",5.282,"Working","OW283"
"2023-05-26 20:00",5.289,"Working","OW283"
"2023-05-26 21:00",5.297,"Working","OW283"
"2023-05-26 22:00",5.294,"Working","OW283"
"2023-05-26 23:00",5.296,"Working","OW283"
"2023-05-27 00:00",5.294,"Working","OW283"
"2023-05-27 01:00",5.293,"Working","OW283"
"2023-05-27 02:00",5.295,"Working","OW283"
"2023-05-27 03:00",5.292,"Working","OW283"
"2023-05-27 04:00",5.29,"Working","OW283"
"2023-05-27 05:00",5.29,"Working","OW283"
"2023-05-27 06:00",5.288,"Working","OW283"
"2023-05-27 07:00",5.289,"Working","OW283"
"2023-05-27 08:00",5.286,"Working","OW283"
"2023-05-27 09:00",5.285,"Working","OW283"
"2023-05-27 10:00",5.284,"Working","OW283"
"2023-05-27 11:00",5.281,"Working","OW283"
"2023-05-27 12:00",5.278,"Working","OW283"
"2023-05-27 13:00",5.279,"Working","OW283"
"2023-05-27 14:00",5.279,"Working","OW283"
"2023-05-27 15:00",5.278,"Working","OW283"
"2023-05-27 16:00",5.276,"Working","OW283"
"2023-05-27 17:00",5.288,"Working","OW283"
"2023-05-27 18:00",5.286,"Working","OW283"
"2023-05-27 19:00",5.308,"Working","OW283"
"2023-05-27 20:00",5.316,"Working","OW283"
"2023-05-27 21:00",5.317,"Working","OW283"
"2023-05-27 22:00",5.314,"Working","OW283"
"2023-05-27 23:00",5.311,"Working","OW283"
"2023-05-28 00:00",5.312,"Working","OW283"
"2023-05-28 01:00",5.307,"Working","OW283"
"2023-05-28 02:00",5.301,"Working","OW283"
"2023-05-28 03:00",5.304,"Working","OW283"
"2023-05-28 04:00",5.305,"Working","OW283"
"2023-05-28 05:00",5.302,"Working","OW283"
"2023-05-28 06:00",5.301,"Working","OW283"
"2023-05-28 07:00",5.296,"Working","OW283"
"2023-05-28 08:00",5.296,"Working","OW283"
"2023-05-28 09:00",5.297,"Working","OW283"
"2023-05-28 10:00",5.296,"Working","OW283"
"2023-05-28 11:00",5.295,"Working","OW283"
"2023-05-28 12:00",5.292,"Working","OW283"
"2023-05-28 13:00",5.288,"Working","OW283"
"2023-05-28 14:00",5.287,"Working","OW283"
"2023-05-28 15:00",5.288,"Working","OW283"
"2023-05-28 16:00",5.288,"Working","OW283"